User: anonymous   Login
Location: Fort Wayne
(41.1310°N, 85.1290°W)
Time: 13:04:42
(UTC-05:00)
Language:

MetOp-A - Orbit

View from above orbital plane
View from above orbital plane
View from above satellite
View from above satellite

Ground track
Ground track

The orbit data is extracted from the following two-line orbital elements,

1 29499U 06044A   16343.19214883  .00000007  00000-0  23388-4 0  9995
2 29499  98.7073  39.7439 0001603  56.4177  20.5278 14.21484486526003
Epoch (UTC): 08 December 2016 04:36:41
Eccentricity: 0.0001603
inclination: 98.7073°
perigee height: 819 km
apogee height: 821 km
right ascension of ascending node: 39.7439°
argument of perigee: 56.4177°
revolutions per day: 14.21484486
mean anomaly at epoch: 20.5278°
orbit number at epoch: 52600

The dashed part of the orbit path shows where the satellite is in the earth's shadow,  

DLR